2021-034F (48273 NORAD) Tracking and Keplerian Element Data

This shows tracking and keplerian element data for the satellite.

Feedback or suggestion? Click here.




ElementValue
Catalog48273
Name2021-034F
Epoch Orbit262
Epoch Day136.78996366
Epoch Year2021
RAAN212.0673
Inclination97.7858
Eccentricity0.0002145
Argument of Perigee317.6739
Mean Anonmoly42.4311
Mean Motion14.85737345
Decay Rate8.01E-06
L11 48273U 21034F 21136.78996366 .00000801 00000-0 98357-4 0 9996
L22 48273 97.7858 212.0673 0002145 317.6739 42.4311 14.85737345 2621

Live tracking and technical data element details for 2021-034F (NORAD 48273). 2021-034F can be tracked NOW for your location showing map with azimuth and elevation plus other details from your city location.

Track the satellite on the map from your city or location and see movement details for azimuth, elevation, latitude, longitude, range, height, and movement on the map or in text.







IsCatalogInMostPopularTable: catalog: 48273, numindb: 1
Update: records affected: 1



GetName: 48273 2021-034F

Hit Count: updated at: Mon, 17 May 2021 16:21:54 GMT